Tracking 28792 objects as of 25-Apr-2024
HD Live streaming from Space Station
objects crossing your sky now

STARLINK-31477

Track STARLINK-31477 now!
10-day predictions
STARLINK-31477 is classified as:


NORAD ID: 59314
Int'l Code: 2024-056U
Perigee: 449.9 km
Apogee: 452.4 km
Inclination: 43.0 °
Period: 93.5 minutes
Semi major axis: 6822 km
RCS: Unknown
Launch date: March 24, 2024
Source: United States (US)
Launch site: AIR FORCE EASTERN TEST RANGE (AFETR)
Your satellite tracking list
Your tracking list is empty




NASA's NSSDC Master Catalog

Two Line Element Set (TLE):
1 59314U 24056U   24115.91667824  .00015455  00000-0  37643-3 0  9991
2 59314  42.9995 174.0680 0001786 299.3239 201.3491 15.40704516  6107
Source of the keplerian elements: AFSPC